NWK1767 YPKG-YPPH

Flight info

Callsign NWK1767
Flight time 0h 57m
Altitude 36000
Route KG Q41 MALUP Q158 PH
Aircraft A320/M-SDE3FGHIRWY/LB1

Departure

Time 2026-05-07 20:56
Airport Kalgoorlie Boulder Airport (YPKG)

Arrival

Time 2026-05-07 21:54
Airport Perth International Airport (YPPH)
Time Latitude Longitude Altitude Speed Heading
2026-05-07 20:38 -30.78589 121.45812 1200 ft 0 kts 59°
2026-05-07 20:51 -30.78590 121.45820 1200 ft 2 kts 100°
2026-05-07 20:51 -30.78617 121.45825 1199 ft 6 kts 191°
2026-05-07 20:52 -30.78664 121.45801 1199 ft 9 kts 201°
2026-05-07 20:52 -30.78728 121.45773 1199 ft 11 kts 202°
2026-05-07 20:52 -30.78801 121.45742 1201 ft 12 kts 200°
2026-05-07 20:52 -30.78877 121.45706 1203 ft 12 kts 214°
2026-05-07 20:53 -30.78882 121.45629 1207 ft 9 kts 293°
2026-05-07 20:53 -30.78862 121.45576 1211 ft 5 kts 293°
2026-05-07 20:53 -30.78853 121.45547 1213 ft 2 kts 285°
2026-05-07 20:53 -30.78852 121.45536 1213 ft 2 kts 277°
2026-05-07 20:54 -30.78856 121.45507 1215 ft 4 kts 257°
2026-05-07 20:54 -30.78842 121.45482 1216 ft 4 kts 349°
2026-05-07 20:54 -30.78845 121.45522 1214 ft 9 kts 120°
2026-05-07 20:54 -30.78851 121.45538 1213 ft 0 kts 111°
2026-05-07 20:55 -30.78947 121.45836 1195 ft 78 kts 110°
2026-05-07 20:56 -30.79213 121.46664 1173 ft 136 kts 110°
2026-05-07 20:56 -30.79568 121.47747 1615 ft 143 kts 110°
2026-05-07 20:56 -30.79928 121.48837 2203 ft 146 kts 109°
2026-05-07 20:56 -30.80335 121.49922 2904 ft 149 kts 108°
2026-05-07 20:57 -30.80846 121.51063 3243 ft 171 kts 112°
2026-05-07 20:57 -30.81780 121.52109 3506 ft 212 kts 150°
2026-05-07 20:57 -30.83372 121.52211 3832 ft 253 kts 194°
2026-05-07 20:57 -30.84958 121.51103 4295 ft 280 kts 223°
2026-05-07 20:58 -30.86095 121.49225 5168 ft 287 kts 242°
2026-05-07 20:58 -30.87032 121.47168 6159 ft 288 kts 242°
2026-05-07 20:58 -30.87955 121.45080 7081 ft 292 kts 243°
2026-05-07 20:58 -30.88883 121.42953 7951 ft 296 kts 243°
2026-05-07 20:59 -30.89817 121.40803 8816 ft 299 kts 243°
2026-05-07 20:59 -30.90762 121.38626 9684 ft 303 kts 243°
2026-05-07 20:59 -30.91726 121.36408 10333 ft 316 kts 243°
2026-05-07 20:59 -30.92733 121.34095 10791 ft 331 kts 243°
2026-05-07 21:00 -30.93803 121.31644 11257 ft 345 kts 243°
2026-05-07 21:00 -30.94899 121.29128 11931 ft 350 kts 243°
2026-05-07 21:00 -30.96006 121.26583 12655 ft 354 kts 243°
2026-05-07 21:00 -30.97126 121.24009 13377 ft 358 kts 242°
2026-05-07 21:01 -30.98260 121.21402 14108 ft 362 kts 242°
2026-05-07 21:01 -30.99405 121.18775 14780 ft 366 kts 242°
2026-05-07 21:01 -31.00566 121.16104 15426 ft 369 kts 242°
2026-05-07 21:01 -31.01733 121.13414 16056 ft 373 kts 242°
2026-05-07 21:02 -31.02909 121.10709 16690 ft 376 kts 242°
2026-05-07 21:02 -31.04099 121.07976 17325 ft 379 kts 242°
2026-05-07 21:02 -31.05298 121.05218 17957 ft 383 kts 242°
2026-05-07 21:02 -31.06504 121.02435 18595 ft 386 kts 242°
2026-05-07 21:03 -31.07719 120.99629 19170 ft 390 kts 242°
2026-05-07 21:03 -31.08946 120.96793 19746 ft 393 kts 242°
2026-05-07 21:03 -31.10168 120.93968 20314 ft 396 kts 242°
2026-05-07 21:03 -31.11413 120.91085 20890 ft 400 kts 241°
2026-05-07 21:04 -31.12675 120.88161 21451 ft 403 kts 241°
2026-05-07 21:04 -31.13941 120.85229 21996 ft 406 kts 241°
2026-05-07 21:04 -31.15215 120.82275 22533 ft 410 kts 241°
2026-05-07 21:04 -31.16502 120.79288 23078 ft 413 kts 241°
2026-05-07 21:05 -31.17802 120.76268 23628 ft 417 kts 241°
2026-05-07 21:05 -31.19109 120.73225 24162 ft 420 kts 240°
2026-05-07 21:05 -31.20404 120.70201 24608 ft 423 kts 240°
2026-05-07 21:05 -31.21725 120.67117 25076 ft 425 kts 241°
2026-05-07 21:06 -31.23050 120.64022 25536 ft 427 kts 241°
2026-05-07 21:06 -31.24387 120.60901 25993 ft 430 kts 240°
2026-05-07 21:06 -31.25730 120.57771 26440 ft 432 kts 240°
2026-05-07 21:06 -31.27078 120.54628 26883 ft 434 kts 240°
2026-05-07 21:07 -31.28436 120.51454 27322 ft 436 kts 241°
2026-05-07 21:07 -31.29791 120.48273 27746 ft 438 kts 241°
2026-05-07 21:07 -31.31150 120.45070 28158 ft 440 kts 241°
2026-05-07 21:07 -31.32449 120.41865 28563 ft 443 kts 243°
2026-05-07 21:08 -31.33716 120.38569 28969 ft 445 kts 244°
2026-05-07 21:08 -31.34950 120.35247 29381 ft 447 kts 244°
2026-05-07 21:08 -31.36180 120.31897 29784 ft 449 kts 244°
2026-05-07 21:08 -31.37420 120.28532 30181 ft 451 kts 244°
2026-05-07 21:09 -31.38680 120.25154 30573 ft 453 kts 244°
2026-05-07 21:09 -31.39959 120.21757 30912 ft 455 kts 244°
2026-05-07 21:09 -31.41242 120.18370 31257 ft 457 kts 244°
2026-05-07 21:09 -31.42536 120.14970 31601 ft 458 kts 244°
2026-05-07 21:10 -31.43819 120.11594 31931 ft 459 kts 244°
2026-05-07 21:10 -31.45114 120.08178 32379 ft 458 kts 244°
2026-05-07 21:10 -31.46398 120.04774 32867 ft 455 kts 244°
2026-05-07 21:10 -31.47672 120.01385 33364 ft 453 kts 244°
2026-05-07 21:11 -31.48940 119.98012 33863 ft 451 kts 244°
2026-05-07 21:11 -31.50198 119.94657 34360 ft 449 kts 244°
2026-05-07 21:11 -31.52701 119.87994 35220 ft 445 kts 244°
2026-05-07 21:12 -31.53948 119.84675 35611 ft 443 kts 244°
2026-05-07 21:12 -31.55182 119.81377 35986 ft 442 kts 245°
2026-05-07 21:12 -31.56412 119.78083 36355 ft 440 kts 245°
2026-05-07 21:12 -31.57643 119.74783 36513 ft 440 kts 245°
2026-05-07 21:13 -31.60084 119.68247 36544 ft 436 kts 245°
2026-05-07 21:13 -31.62499 119.61770 36544 ft 436 kts 245°
2026-05-07 21:14 -31.64920 119.55242 36539 ft 435 kts 245°
2026-05-07 21:14 -31.67343 119.48720 36539 ft 436 kts 245°
2026-05-07 21:15 -31.69760 119.42197 36542 ft 436 kts 245°
2026-05-07 21:15 -31.72179 119.35643 36546 ft 437 kts 245°
2026-05-07 21:16 -31.74593 119.29093 36557 ft 437 kts 245°
2026-05-07 21:16 -31.76991 119.22574 36549 ft 437 kts 245°
2026-05-07 21:17 -31.79400 119.16020 36559 ft 436 kts 245°
2026-05-07 21:17 -31.81804 119.09475 36558 ft 436 kts 246°
2026-05-07 21:18 -31.84205 119.02908 36558 ft 436 kts 245°
2026-05-07 21:18 -31.86603 118.96341 36559 ft 436 kts 245°
2026-05-07 21:19 -31.88990 118.89785 36547 ft 436 kts 245°
2026-05-07 21:19 -31.91361 118.83268 36548 ft 436 kts 245°
2026-05-07 21:20 -31.93361 118.77779 36547 ft 436 kts 245°
2026-05-07 21:20 -31.96125 118.70146 36548 ft 435 kts 245°
2026-05-07 21:21 -31.98099 118.64686 36541 ft 435 kts 245°
2026-05-07 21:21 -32.00471 118.58123 36543 ft 435 kts 246°
2026-05-07 21:22 -32.02838 118.51553 36540 ft 435 kts 246°
2026-05-07 21:22 -32.05202 118.44989 36546 ft 435 kts 246°
2026-05-07 21:23 -32.07563 118.38428 36546 ft 435 kts 245°
2026-05-07 21:23 -32.10093 118.31952 36542 ft 434 kts 243°
2026-05-07 21:24 -32.12716 118.25546 36542 ft 434 kts 243°
2026-05-07 21:24 -32.15291 118.19161 36473 ft 434 kts 244°
2026-05-07 21:25 -32.16571 118.15936 36221 ft 432 kts 244°
2026-05-07 21:25 -32.17842 118.12723 35975 ft 432 kts 243°
2026-05-07 21:25 -32.19113 118.09512 35729 ft 431 kts 244°
2026-05-07 21:25 -32.20382 118.06308 35484 ft 431 kts 243°
2026-05-07 21:26 -32.21649 118.03106 35238 ft 430 kts 244°
2026-05-07 21:26 -32.22910 117.99909 35001 ft 429 kts 243°
2026-05-07 21:26 -32.24161 117.96738 34672 ft 424 kts 244°
2026-05-07 21:26 -32.25409 117.93572 34069 ft 425 kts 244°
2026-05-07 21:27 -32.26646 117.90435 33698 ft 419 kts 244°
2026-05-07 21:27 -32.27875 117.87315 33223 ft 417 kts 244°
2026-05-07 21:27 -32.29098 117.84217 32765 ft 415 kts 244°
2026-05-07 21:27 -32.30317 117.81128 32311 ft 413 kts 244°
2026-05-07 21:28 -32.31526 117.78055 31847 ft 411 kts 244°
2026-05-07 21:28 -32.32725 117.74994 31415 ft 410 kts 244°
2026-05-07 21:28 -32.33908 117.71962 30985 ft 409 kts 244°
2026-05-07 21:28 -32.34950 117.68840 30544 ft 408 kts 254°
2026-05-07 21:29 -32.35461 117.65540 30091 ft 407 kts 266°
2026-05-07 21:29 -32.35407 117.62216 29672 ft 405 kts 278°
2026-05-07 21:29 -32.34822 117.59018 29273 ft 402 kts 287°
2026-05-07 21:29 -32.34055 117.55848 28870 ft 400 kts 287°
2026-05-07 21:30 -32.33292 117.52691 28478 ft 398 kts 287°
2026-05-07 21:30 -32.32531 117.49546 28075 ft 397 kts 287°
2026-05-07 21:30 -32.31773 117.46410 27670 ft 395 kts 287°
2026-05-07 21:30 -32.31021 117.43291 27261 ft 394 kts 287°
2026-05-07 21:31 -32.30273 117.40182 26851 ft 393 kts 287°
2026-05-07 21:31 -32.29527 117.37077 26430 ft 391 kts 287°
2026-05-07 21:31 -32.28782 117.33982 26000 ft 391 kts 287°
2026-05-07 21:31 -32.28036 117.30893 25578 ft 390 kts 287°
2026-05-07 21:32 -32.27291 117.27818 25139 ft 389 kts 287°
2026-05-07 21:32 -32.26545 117.24745 24697 ft 389 kts 287°
2026-05-07 21:32 -32.25800 117.21675 24263 ft 389 kts 288°
2026-05-07 21:32 -32.25053 117.18603 23773 ft 388 kts 288°
2026-05-07 21:33 -32.24309 117.15547 23326 ft 386 kts 288°
2026-05-07 21:33 -32.23568 117.12515 22891 ft 383 kts 288°
2026-05-07 21:33 -32.22830 117.09503 22449 ft 381 kts 288°
2026-05-07 21:33 -32.22096 117.06506 22021 ft 378 kts 288°
2026-05-07 21:34 -32.21380 117.03566 21611 ft 376 kts 288°
2026-05-07 21:34 -32.20648 117.00565 21018 ft 377 kts 288°
2026-05-07 21:34 -32.19917 116.97587 20315 ft 384 kts 288°
2026-05-07 21:34 -32.19178 116.94575 19924 ft 380 kts 288°
2026-05-07 21:35 -32.18443 116.91586 19523 ft 377 kts 288°
2026-05-07 21:35 -32.17713 116.88613 19083 ft 375 kts 288°
2026-05-07 21:35 -32.16989 116.85665 18582 ft 375 kts 288°
2026-05-07 21:35 -32.16268 116.82736 18165 ft 370 kts 288°
2026-05-07 21:36 -32.15549 116.79828 17733 ft 366 kts 288°
2026-05-07 21:36 -32.14838 116.76946 17259 ft 364 kts 288°
2026-05-07 21:36 -32.14133 116.74087 16856 ft 361 kts 288°
2026-05-07 21:36 -32.13440 116.71294 16449 ft 358 kts 288°
2026-05-07 21:37 -32.12734 116.68451 16033 ft 355 kts 288°
2026-05-07 21:37 -32.12053 116.65706 15635 ft 352 kts 288°
2026-05-07 21:37 -32.11365 116.62942 15229 ft 349 kts 288°
2026-05-07 21:37 -32.10682 116.60202 14828 ft 347 kts 288°
2026-05-07 21:38 -32.10005 116.57479 14438 ft 345 kts 288°
2026-05-07 21:38 -32.09330 116.54772 14023 ft 343 kts 288°
2026-05-07 21:38 -32.08660 116.52084 13618 ft 340 kts 288°
2026-05-07 21:38 -32.07991 116.49416 13221 ft 337 kts 288°
2026-05-07 21:39 -32.07331 116.46782 12829 ft 334 kts 288°
2026-05-07 21:39 -32.06675 116.44159 12443 ft 332 kts 288°
2026-05-07 21:39 -32.06025 116.41551 12110 ft 329 kts 288°
2026-05-07 21:39 -32.05389 116.39009 11878 ft 321 kts 288°
2026-05-07 21:40 -32.04748 116.36454 11314 ft 327 kts 287°
2026-05-07 21:40 -32.04102 116.33889 10923 ft 326 kts 287°
2026-05-07 21:40 -32.03458 116.31338 10538 ft 324 kts 287°
2026-05-07 21:40 -32.02819 116.28799 10135 ft 323 kts 287°
2026-05-07 21:41 -32.02184 116.26277 9888 ft 315 kts 287°
2026-05-07 21:41 -32.01571 116.23838 9658 ft 307 kts 287°
2026-05-07 21:41 -32.00975 116.21465 9331 ft 305 kts 287°
2026-05-07 21:41 -32.00374 116.19082 8996 ft 303 kts 288°
2026-05-07 21:42 -31.99779 116.16713 8728 ft 298 kts 287°
2026-05-07 21:42 -31.99201 116.14386 8436 ft 295 kts 287°
2026-05-07 21:42 -31.98631 116.12079 8123 ft 293 kts 287°
2026-05-07 21:42 -31.98064 116.09785 7808 ft 291 kts 287°
2026-05-07 21:43 -31.97503 116.07506 7514 ft 289 kts 287°
2026-05-07 21:43 -31.96946 116.05243 7226 ft 287 kts 287°
2026-05-07 21:43 -31.96398 116.02991 7028 ft 285 kts 287°
2026-05-07 21:43 -31.95854 116.00747 7008 ft 285 kts 287°
2026-05-07 21:44 -31.95304 115.98498 7010 ft 286 kts 287°
2026-05-07 21:44 -31.94756 115.96256 6774 ft 284 kts 287°
2026-05-07 21:44 -31.94221 115.94030 6471 ft 281 kts 287°
2026-05-07 21:44 -31.93924 115.91771 6164 ft 282 kts 267°
2026-05-07 21:45 -31.94482 115.89572 5842 ft 283 kts 240°
2026-05-07 21:45 -31.95807 115.87918 5475 ft 284 kts 212°
2026-05-07 21:45 -31.97601 115.86944 5102 ft 285 kts 199°
2026-05-07 21:45 -31.99467 115.86160 5002 ft 286 kts 198°
2026-05-07 21:46 -32.01358 115.85388 4942 ft 287 kts 198°
2026-05-07 21:46 -32.03235 115.84628 4726 ft 279 kts 198°
2026-05-07 21:46 -32.05009 115.83906 4569 ft 262 kts 198°
2026-05-07 21:46 -32.06711 115.83207 4170 ft 257 kts 198°
2026-05-07 21:47 -32.08388 115.82517 3670 ft 255 kts 198°
2026-05-07 21:47 -32.10045 115.81948 3472 ft 240 kts 184°
2026-05-07 21:47 -32.11659 115.82060 3107 ft 229 kts 156°
2026-05-07 21:47 -32.12985 115.82884 3002 ft 206 kts 131°
2026-05-07 21:48 -32.13872 115.84125 3009 ft 191 kts 109°
2026-05-07 21:48 -32.14294 115.85556 3010 ft 180 kts 89°
2026-05-07 21:48 -32.14277 115.86994 3018 ft 173 kts 72°
2026-05-07 21:48 -32.13884 115.88300 3013 ft 168 kts 56°
2026-05-07 21:49 -32.13196 115.89398 3012 ft 166 kts 47°
2026-05-07 21:49 -32.12456 115.90441 3010 ft 165 kts 45°
2026-05-07 21:49 -32.11573 115.91278 3011 ft 164 kts 27°
2026-05-07 21:49 -32.10491 115.91704 2956 ft 163 kts 17°
2026-05-07 21:50 -32.09391 115.92023 2817 ft 162 kts 16°
2026-05-07 21:50 -32.08299 115.92341 2593 ft 162 kts 17°
2026-05-07 21:50 -32.07205 115.92660 2381 ft 161 kts 18°
2026-05-07 21:50 -32.06129 115.92974 2164 ft 155 kts 17°
2026-05-07 21:51 -32.05124 115.93266 1955 ft 143 kts 18°
2026-05-07 21:51 -32.04194 115.93538 1754 ft 133 kts 18°
2026-05-07 21:51 -32.03312 115.93796 1610 ft 131 kts 18°
2026-05-07 21:51 -32.02431 115.94053 1424 ft 128 kts 20°
2026-05-07 21:52 -32.01568 115.94306 1255 ft 128 kts 20°
2026-05-07 21:52 -32.00706 115.94558 1084 ft 127 kts 19°
2026-05-07 21:52 -31.99833 115.94813 906 ft 130 kts 20°
2026-05-07 21:52 -31.98962 115.95067 729 ft 129 kts 20°
2026-05-07 21:53 -31.98084 115.95323 559 ft 129 kts 17°
2026-05-07 21:53 -31.97206 115.95576 403 ft 129 kts 18°
2026-05-07 21:53 -31.96329 115.95835 220 ft 129 kts 18°
2026-05-07 21:53 -31.95454 115.96089 69 ft 127 kts 16°
2026-05-07 21:54 -31.94744 115.96299 66 ft 81 kts 14°
2026-05-07 21:54 -31.94359 115.96410 67 ft 38 kts 14°
2026-05-07 21:54 -31.94148 115.96472 65 ft 29 kts 14°
2026-05-07 21:54 -31.93951 115.96528 68 ft 30 kts 14°
2026-05-07 21:55 -31.93748 115.96588 61 ft 31 kts 13°
2026-05-07 21:55 -31.93563 115.96635 61 ft 16 kts 353°
2026-05-07 21:55 -31.93493 115.96527 65 ft 18 kts 294°
2026-05-07 21:55 -31.93443 115.96404 59 ft 10 kts 295°
2026-05-07 21:56 -31.93402 115.96338 64 ft 11 kts 324°
2026-05-07 21:56 -31.93354 115.96277 63 ft 11 kts 287°
2026-05-07 21:56 -31.93342 115.96219 63 ft 4 kts 283°
2026-05-07 21:56 -31.93339 115.96203 63 ft 0 kts 283°